Weather History for Russell, KS

Change the Weather History Date:

Sunday, January 1, 2012

  Actual Average Record
Temperature  
Mean Temperature 37 °F -  
Max Temperature 46 °F 34 °F 66 °F (1997)
Min Temperature 28 °F 14 °F -12 °F (1979)
Degree Days  
Heating Degree Days 28    
Moisture  
Dew Point 23 °F    
Average Humidity 61    
Maximum Humidity 78    
Minimum Humidity 36    
Precipitation  
Precipitation 0.00 in - - ()
Sea Level Pressure  
Sea Level Pressure 30.54 in    
Wind  
Wind Speed 16 mph (NW)    
Max Wind Speed 22 mph    
Max Gust Speed 26 mph    
Visibility 10 miles    
Events      
Averages and records for this station are not official NWS values.
T = Trace of Precipitation, MM = Missing Value Source: NWS Daily Summary

Daily Weather History Graph

Daily Weather History Graph

Search for Another Location

Airport:

Trip Planner

Search our weather history database for the weather conditions in past years. The results will help you decide how hot, cold, wet, or windy it might be!

Date:

Astronomy

Jan. 01, 2012 Rise Set
Actual Time 7:53 AM CST 5:23 PM CST
Civil Twilight 7:23 AM CST 5:53 PM CST
Nautical Twilight 6:50 AM CST 6:26 PM CST
Astronomical Twilight 6:18 AM CST 6:59 PM CST
Moon 12:11 PM CST (1/1) 12:52 AM CST (1/1)
Length of Visible Light 10h 29m
Length of Day
9h 29m
First Quarter, 55% of the Moon is Illuminated
Jan 1
First Quarter
Jan 9
Full
Jan 16
Last Quarter
Jan 23
New
Jan 30
First Quarter

Hourly Weather History & Observations

Time (CST) Temp. Windchill Dew Point Humidity Pressure Visibility Wind Dir Wind Speed Gust Speed Precip Events Conditions
12:53 AM 36.0 °F 25.3 °F 27.0 °F 70% 30.27 in 10.0 mi WNW 19.6 mph - N/A   Clear
1:53 AM 35.6 °F 24.2 °F 26.6 °F 70% 30.28 in 10.0 mi NW 21.9 mph - N/A   Clear
2:53 AM 34.0 °F 22.4 °F 26.1 °F 73% 30.36 in 10.0 mi NW 20.7 mph - N/A   Clear
3:53 AM 33.1 °F 22.2 °F 25.0 °F 72% 30.38 in 10.0 mi NW 17.3 mph - N/A   Clear
4:53 AM 30.9 °F 20.2 °F 24.1 °F 76% 30.40 in 10.0 mi NW 15.0 mph - N/A   Clear
5:53 AM 28.9 °F 18.2 °F 23.0 °F 78% 30.41 in 10.0 mi NW 13.8 mph - N/A   Clear
6:53 AM 30.0 °F 20.5 °F 23.0 °F 75% 30.46 in 10.0 mi NW 11.5 mph - N/A   Clear
7:53 AM 28.9 °F 18.6 °F 23.0 °F 78% 30.49 in 10.0 mi NW 12.7 mph - N/A   Clear
8:53 AM 32.0 °F 22.5 °F 23.0 °F 69% 30.54 in 10.0 mi NW 12.7 mph - N/A   Clear
9:53 AM 35.1 °F 26.4 °F 24.1 °F 64% 30.58 in 10.0 mi NW 12.7 mph - N/A   Clear
10:53 AM 37.9 °F 30.0 °F 23.0 °F 55% 30.61 in 10.0 mi NW 12.7 mph - N/A   Clear
11:53 AM 41.0 °F 33.9 °F 23.0 °F 49% 30.60 in 10.0 mi WNW 12.7 mph - N/A   Clear
12:53 PM 44.1 °F 37.1 °F 24.1 °F 45% 30.58 in 10.0 mi WNW 15.0 mph 23.0 mph N/A   Clear
1:53 PM 46.0 °F 38.5 °F 23.0 °F 40% 30.56 in 10.0 mi NW 19.6 mph 26.5 mph N/A   Clear
2:53 PM 46.0 °F 38.8 °F 21.9 °F 39% 30.56 in 10.0 mi WNW 18.4 mph 26.5 mph N/A   Clear
3:53 PM 45.0 °F 37.6 °F 19.0 °F 36% 30.57 in 10.0 mi NW 17.3 mph - N/A   Clear
4:53 PM 42.8 °F 35.8 °F 21.2 °F 42% 30.55 in 10.0 mi NNW 13.8 mph - N/A   Clear
5:53 PM 34.0 °F 26.0 °F 23.0 °F 64% 30.62 in 10.0 mi NNW 10.4 mph - N/A   Clear
6:53 PM 35.1 °F 26.9 °F 21.9 °F 59% 30.63 in 10.0 mi NNW 11.5 mph - N/A   Clear
7:53 PM 33.1 °F 27.7 °F 21.9 °F 64% 30.66 in 10.0 mi NW 5.8 mph - N/A   Clear
8:53 PM 34.0 °F 26.6 °F 21.0 °F 59% 30.68 in 10.0 mi NNW 9.2 mph - N/A   Clear
9:53 PM 34.0 °F 27.2 °F 19.0 °F 54% 30.69 in 10.0 mi North 8.1 mph - N/A   Clear
10:53 PM 30.2 °F 23.4 °F 19.4 °F 64% 30.65 in 10.0 mi NNW 6.9 mph - N/A   Clear
11:53 PM 30.0 °F 22.4 °F 17.1 °F 59% 30.71 in 10.0 mi North 8.1 mph - N/A   Clear